Flag for France Weather past 2 weeks in Rodez, France

Now
55 °F

Partly sunny.


Feels Like: 55 °F
Forecast: 50 / 65 °F
Wind: 1 mph from North

Location: Rodez Airport

Current Time: Sep 2, 2015 at 11:33:59 AM

Latest Report: Sep 2, 2015 at 10:30 AM


Visibility: N/A

Pressure: 30.07 "Hg (27.85 "Hg at 642m altitude)

Humidity: 94%

Dew point: 54 °F

Location of RodezLocation

Historic Weather in Rodez — Graph

°F

Rodez temperature yesterday

Maximum temperature yesterday: 70 °F (at 4:30 PM)
Minimum temperature yesterday: 57 °F (at 11:30 PM)
Average temperature yesterday: 63 °F

Past Weeks' High & Low Weather Summary

 TemperatureHumidityPressure
High88 °F (Aug 28, 5:00 PM)100% (Aug 19, 6:30 AM)30.24 "Hg (Aug 19, 6:30 AM)
Low45 °F (Aug 25, 7:00 AM)28% (Aug 21, 7:00 PM)29.68 "Hg (Aug 24, 3:30 AM)
Average68 °F66%30.07 "Hg
* Reported Aug 18 10:00 AM — Sep 2 10:30 AM, Rodez, Weather by CustomWeather, © 2015

Note: Actual official high and low records may vary slightly from our data, if they occured in-between our weather recording intervals... More about our weather records

Advertising

Rodez weather history for previous 24 hours

 ConditionsComfort  
Time TempWeatherWind HumidityBarometerVisibility
10:30 AM
Wed, Sep 2
55 °FPartly sunny.1 mph94%30.07 "HgN/A
10:00 AM54 °FFog.2 mph100%30.07 "HgN/A
9:30 AM52 °FFog.No wind100%30.07 "Hg1 mi
9:00 AM52 °FFog.No wind100%30.09 "Hg0 mi
8:30 AM52 °FFog.2 mph100%30.07 "Hg0 mi
8:00 AM48 °FFog.3 mph100%30.07 "Hg2 mi
7:30 AM46 °FFog.No wind100%30.07 "Hg1 mi
7:00 AM46 °FFog.No wind100%30.07 "Hg1 mi
6:00 AM48 °FFog.No wind100%30.07 "Hg4 mi
5:30 AM48 °FFog.1 mph94%30.07 "Hg2 mi
5:00 AM50 °FLight fog.1 mph94%30.07 "Hg2 mi
4:30 AM50 °FClear.No wind94%30.07 "Hg10 mi
4:00 AM50 °FClear.2 mph100%30.07 "Hg10 mi
3:30 AM52 °FClear.No wind88%30.09 "Hg10 mi
3:00 AM52 °FClear.2 mph94%30.09 "Hg10 mi
2:30 AM54 °FClear.1 mph100%30.09 "Hg10 mi
2:00 AM54 °FClear.2 mph94%30.09 "Hg10 mi
1:30 AM54 °FClear.1 mph94%30.09 "Hg10 mi
1:00 AM54 °FClear.6 mph94%30.09 "Hg10 mi
11:30 PM
Tue, Sep 1
57 °FClear.5 mph82%30.12 "Hg10 mi
11:00 PM59 °FClear.3 mph82%30.12 "Hg10 mi
10:30 PM59 °FClear.6 mph82%30.12 "Hg10 mi
10:00 PM59 °FPassing clouds.7 mph88%30.12 "HgN/A
9:30 PM59 °FPartly cloudy.6 mph82%30.12 "HgN/A
9:00 PM61 °FSunny.6 mph77%30.12 "Hg10 mi
8:30 PM63 °FSunny.9 mph77%30.09 "Hg10 mi
8:00 PM64 °FSunny.10 mph73%30.09 "Hg10 mi
7:30 PM66 °FSunny.9 mph68%30.09 "Hg10 mi
7:00 PM66 °FPartly sunny.10 mph64%30.09 "HgN/A
6:30 PM68 °FScattered clouds.12 mph60%30.09 "HgN/A
6:00 PM70 °FScattered clouds.14 mph57%30.09 "HgN/A
5:30 PM70 °FPartly sunny.12 mph60%30.09 "HgN/A
5:00 PM68 °FPassing clouds.13 mph64%30.12 "HgN/A
4:30 PM70 °FPassing clouds.15 mph60%30.12 "HgN/A
4:00 PM66 °FPartly sunny.17 mph68%30.12 "HgN/A
3:30 PM66 °FBroken clouds.17 mph68%30.12 "HgN/A
3:00 PM66 °FPartly sunny.15 mph68%30.12 "HgN/A
2:30 PM66 °FBroken clouds.16 mph73%30.12 "HgN/A
2:00 PM64 °FBroken clouds.15 mph78%30.12 "HgN/A
1:30 PM66 °FBroken clouds.13 mph78%30.12 "HgN/A
1:00 PM66 °FPartly sunny.14 mph83%30.12 "HgN/A
12:30 PM64 °FMostly cloudy.15 mph88%30.12 "HgN/A
12:00 PM63 °FMostly cloudy.13 mph94%30.12 "HgN/A
11:30 AM63 °FPartly sunny.13 mph94%30.09 "HgN/A
11:00 AM64 °FMostly cloudy.13 mph88%30.09 "HgN/A
Weather by CustomWeather, © 2015

See weather overviewHow to use our weather pages